Flag for Cameroon Weather past 2 weeks in Bamenda, Cameroon

Now
77 °F

Passing clouds.


Feels Like: 78 °F
Forecast: 64 / 77 °F
Wind: No wind

Location: Douala Obs.

Current Time: Jul 30, 2014 at 11:04:16 PM

Latest Report: Jul 30, 2014 at 10:00 PM


Visibility: N/A

Pressure: 29.98 "Hg

Humidity: 94%

Dew point: 75 °F

Location of BamendaLocation

Historic Weather in Bamenda — Graph

°F

Bamenda temperature yesterday

Maximum temperature yesterday: 82 °F (at 1:00 PM)
Minimum temperature yesterday: 75 °F (at 12:00 AM)
Average temperature yesterday: 78 °F

Past Weeks' High & Low Weather Summary

 TemperatureHumidityPressure
High84 °F (Jul 19, 4:00 PM)100% (Jul 15, 10:00 PM)30.04 "Hg (Jul 15, 10:00 PM)
Low73 °F (Jul 24, 8:00 AM)70% (Jul 19, 4:00 PM)29.86 "Hg (Jul 29, 5:00 PM)
Average77 °F91%29.97 "Hg
* Reported Jul 15 10:00 PM — Jul 30 10:00 PM, Bamenda, Weather by CustomWeather, © 2014

Note: Actual official high and low records may vary slightly from our data, if they occured in-between our weather recording intervals... More about our weather records

Advertising

Bamenda weather history for previous 24 hours

 ConditionsComfort  
Time TempWeatherWind HumidityBarometerVisibility
10:00 PM
Jul 30
77 °FPassing clouds.No wind94%29.98 "HgN/A
9:00 PM77 °FPartly cloudy.No wind89%29.95 "HgN/A
8:00 PM77 °FPartly cloudy.No wind89%29.92 "HgN/A
7:00 PM77 °FPartly cloudy.7 mph89%29.92 "HgN/A
6:00 PM79 °FBroken clouds.6 mph84%29.89 "HgN/A
5:00 PM81 °FPartly sunny.7 mph79%29.89 "HgN/A
4:00 PM82 °FPartly sunny.6 mph74%29.89 "HgN/A
3:00 PM84 °FPartly sunny.6 mph70%29.92 "HgN/A
2:00 PM84 °FPartly sunny.5 mph70%29.92 "HgN/A
1:00 PM84 °FPartly sunny.9 mph70%29.95 "HgN/A
12:00 PM81 °FPartly sunny.7 mph79%29.98 "HgN/A
11:00 AM79 °FMostly cloudy.No wind84%30.01 "HgN/A
10:00 AM77 °FThunderstorms. Mostly cloudy.No wind89%30.01 "HgN/A
9:00 AM75 °FThunderstorms. Mostly cloudy.No wind94%30.01 "HgN/A
8:00 AM73 °FThunderstorms. Mostly cloudy.No wind100%29.98 "HgN/A
7:00 AM73 °FThunderstorms. Mostly cloudy.No wind100%29.95 "HgN/A
6:00 AM75 °FThunderstorms. Mostly cloudy.No wind94%29.92 "HgN/A
5:00 AM75 °FThunderstorms. Partly cloudy.7 mph94%29.92 "HgN/A
4:00 AM77 °FThunderstorms. Partly cloudy.No wind94%29.92 "Hg2 mi
3:00 AM77 °FPartly cloudy.No wind94%29.92 "Hg4 mi
2:00 AM77 °FPartly cloudy.No wind94%29.92 "Hg4 mi
1:00 AM77 °FPartly cloudy.5 mph94%29.92 "HgN/A
12:00 AM77 °FOvercast.No wind94%29.95 "HgN/A
11:00 PM
Jul 29
77 °FOvercast.No wind94%29.95 "HgN/A
Weather by CustomWeather, © 2014

See weather overviewHow to use our weather pages